Time,TemperatureF,DewpointF,PressureIn,WindDirection,WindDirectionDegrees,WindSpeedMPH,WindSpeedGustMPH,Humidity,HourlyPrecipIn,Conditions,Clouds,dailyrainin,SoftwareType,DateUTC
2013-10-03 00:01:00,46.3,44.9,30.02,SW,219,0.0,0.0,95,0.00,RA,,0.00,WeatherDisplay:10.37,2013-10-03 04:01:00,
2013-10-03 00:02:00,46.3,44.9,30.02,SW,219,0.0,0.0,95,0.00,RA,,0.00,WeatherDisplay:10.37,2013-10-03 04:02:00,
2013-10-03 00:03:00,46.3,44.9,30.02,SW,218,0.0,0.0,95,0.00,RA,,0.00,WeatherDisplay:10.37,2013-10-03 04:03:00,
2013-10-03 00:04:00,46.3,44.9,30.02,SW,219,0.0,0.0,95,0.00,RA,,0.00,WeatherDisplay:10.37,2013-10-03 04:04:00,
2013-10-03 00:07:00,46.1,44.7,30.02,SW,218,0.0,0.0,95,0.00,RA,,0.00,WeatherDisplay:10.37,2013-10-03 04:07:00,
2013-10-03 00:12:00,46.0,44.6,30.02,SW,218,0.0,0.0,95,0.00,CLR,,0.00,WeatherDisplay:10.37,2013-10-03 04:12:00,
2013-10-03 00:18:00,45.9,44.5,30.02,SW,219,0.0,0.0,95,0.00,CLR,,0.00,WeatherDisplay:10.37,2013-10-03 04:18:00,
2013-10-03 00:23:00,45.8,44.4,30.02,SW,219,0.0,0.0,95,0.00,CLR,,0.00,WeatherDisplay:10.37,2013-10-03 04:23:00,
2013-10-03 00:28:00,45.6,44.3,30.02,SW,218,0.0,0.0,95,0.00,CLR,,0.00,WeatherDisplay:10.37,2013-10-03 04:28:00,
2013-10-03 00:33:00,45.5,44.2,30.02,SW,219,0.0,0.0,95,0.00,CLR,,0.00,WeatherDisplay:10.37,2013-10-03 04:33:00,
2013-10-03 00:38:00,45.3,44.0,30.01,SW,219,0.0,0.0,95,0.00,CLR,,0.00,WeatherDisplay:10.37,2013-10-03 04:38:00,
2013-10-03 00:43:00,45.0,43.7,30.02,SW,219,0.0,0.0,95,0.00,CLR,,0.00,WeatherDisplay:10.37,2013-10-03 04:43:00,
2013-10-03 00:48:00,44.9,43.6,30.01,SW,219,0.0,0.0,95,0.00,CLR,,0.00,WeatherDisplay:10.37,2013-10-03 04:48:00,
2013-10-03 00:53:00,44.6,43.3,30.02,SW,219,0.0,0.0,95,0.00,CLR,,0.00,WeatherDisplay:10.37,2013-10-03 04:53:00,
2013-10-03 00:58:00,44.4,43.1,30.02,SW,218,0.0,0.0,95,0.00,CLR,,0.00,WeatherDisplay:10.37,2013-10-03 04:58:00,
2013-10-03 01:03:00,44.2,42.9,30.02,SW,218,0.0,0.0,95,0.00,CLR,,0.00,WeatherDisplay:10.37,2013-10-03 05:03:00,
2013-10-03 01:08:00,44.3,43.2,30.02,SW,219,0.0,0.0,96,0.00,CLR,,0.00,WeatherDisplay:10.37,2013-10-03 05:08:00,
2013-10-03 01:13:00,44.3,43.2,30.02,SW,219,0.0,0.0,96,0.00,CLR,,0.00,WeatherDisplay:10.37,2013-10-03 05:13:00,
2013-10-03 01:18:00,44.5,43.4,30.02,SW,219,0.0,0.0,96,0.00,CLR,,0.00,WeatherDisplay:10.37,2013-10-03 05:18:00,
2013-10-03 01:23:00,44.5,43.4,30.01,SW,219,0.0,0.0,96,0.00,CLR,,0.00,WeatherDisplay:10.37,2013-10-03 05:23:00,
2013-10-03 01:28:00,44.4,43.3,30.01,SW,218,0.0,0.0,96,0.00,CLR,,0.00,WeatherDisplay:10.37,2013-10-03 05:28:00,
2013-10-03 01:33:00,44.3,43.2,30.01,SW,219,0.0,0.0,96,0.00,CLR,,0.00,WeatherDisplay:10.37,2013-10-03 05:33:00,
2013-10-03 01:38:00,44.2,43.1,30.01,SW,218,0.0,0.0,96,0.00,CLR,,0.00,WeatherDisplay:10.37,2013-10-03 05:38:00,
2013-10-03 01:43:00,44.1,43.0,30.01,SW,218,0.0,0.0,96,0.00,CLR,,0.00,WeatherDisplay:10.37,2013-10-03 05:43:00,
2013-10-03 01:48:00,44.0,42.9,30.01,SW,219,0.0,0.0,96,0.00,CLR,,0.00,WeatherDisplay:10.37,2013-10-03 05:48:00,
2013-10-03 01:53:00,44.0,42.9,30.01,SW,219,0.0,0.0,96,0.00,CLR,,0.00,WeatherDisplay:10.37,2013-10-03 05:53:00,
2013-10-03 01:58:00,43.9,42.8,30.01,SW,219,0.0,0.0,96,0.00,CLR,,0.00,WeatherDisplay:10.37,2013-10-03 05:58:00,
2013-10-03 02:03:00,43.8,42.7,30.01,SW,219,0.0,0.0,96,0.00,CLR,,0.00,WeatherDisplay:10.37,2013-10-03 06:03:00,
2013-10-03 02:08:00,43.6,42.5,30.02,SW,219,0.0,0.0,96,0.00,CLR,,0.00,WeatherDisplay:10.37,2013-10-03 06:08:00,
2013-10-03 02:13:00,43.4,42.1,30.02,SW,219,0.0,0.0,95,0.00,CLR,,0.00,WeatherDisplay:10.37,2013-10-03 06:13:00,
2013-10-03 02:18:00,43.3,42.0,30.01,SW,219,0.0,0.0,95,0.00,CLR,,0.00,WeatherDisplay:10.37,2013-10-03 06:18:00,
2013-10-03 02:23:00,43.2,42.1,30.01,SW,218,0.0,0.0,96,0.00,CLR,,0.00,WeatherDisplay:10.37,2013-10-03 06:23:00,
2013-10-03 02:28:00,43.0,41.9,30.01,SW,219,0.0,0.0,96,0.00,CLR,,0.00,WeatherDisplay:10.37,2013-10-03 06:28:00,
2013-10-03 02:33:00,42.9,41.8,30.01,SW,219,0.0,0.0,96,0.00,CLR,,0.00,WeatherDisplay:10.37,2013-10-03 06:33:00,
2013-10-03 02:38:00,42.9,41.8,30.01,SW,218,0.0,0.0,96,0.00,CLR,,0.00,WeatherDisplay:10.37,2013-10-03 06:38:00,
2013-10-03 02:43:00,42.9,41.8,30.01,SW,219,0.0,0.0,96,0.00,CLR,,0.00,WeatherDisplay:10.37,2013-10-03 06:43:00,
2013-10-03 02:48:00,42.9,41.8,30.01,SW,219,0.0,0.0,96,0.00,CLR,,0.00,WeatherDisplay:10.37,2013-10-03 06:48:00,
2013-10-03 02:53:00,43.0,41.9,30.01,SW,219,0.0,0.0,96,0.00,CLR,,0.00,WeatherDisplay:10.37,2013-10-03 06:53:00,
2013-10-03 02:58:00,43.0,41.9,30.00,SW,218,0.0,0.0,96,0.00,CLR,,0.00,WeatherDisplay:10.37,2013-10-03 06:58:00,
2013-10-03 03:03:00,42.9,41.8,30.00,SW,219,0.0,0.0,96,0.00,CLR,,0.00,WeatherDisplay:10.37,2013-10-03 07:03:00,
2013-10-03 03:08:00,42.8,41.7,30.00,SW,219,0.0,0.0,96,0.00,CLR,,0.00,WeatherDisplay:10.37,2013-10-03 07:08:00,
2013-10-03 03:13:00,42.8,41.7,30.00,SW,219,0.0,0.0,96,0.00,CLR,,0.00,WeatherDisplay:10.37,2013-10-03 07:13:00,
2013-10-03 03:18:00,42.7,41.6,30.00,SW,219,0.0,0.0,96,0.00,CLR,,0.00,WeatherDisplay:10.37,2013-10-03 07:18:00,
2013-10-03 03:23:00,42.7,41.6,30.00,SW,219,0.0,0.0,96,0.00,CLR,,0.00,WeatherDisplay:10.37,2013-10-03 07:23:00,
2013-10-03 03:28:00,42.7,41.6,29.99,SW,219,0.0,0.0,96,0.00,CLR,,0.00,WeatherDisplay:10.37,2013-10-03 07:28:00,
2013-10-03 03:33:00,42.8,41.7,29.99,SW,218,0.0,0.0,96,0.00,CLR,,0.00,WeatherDisplay:10.37,2013-10-03 07:33:00,
2013-10-03 03:38:00,42.9,41.8,29.99,SW,218,0.0,0.0,96,0.00,CLR,,0.00,WeatherDisplay:10.37,2013-10-03 07:38:00,
2013-10-03 03:43:00,42.9,41.8,29.99,SW,218,0.0,0.0,96,0.00,CLR,,0.00,WeatherDisplay:10.37,2013-10-03 07:43:00,
2013-10-03 03:48:00,42.9,41.8,30.00,SW,219,0.0,0.0,96,0.00,CLR,,0.00,WeatherDisplay:10.37,2013-10-03 07:48:00,
2013-10-03 03:53:00,42.8,41.7,29.99,SW,218,0.0,0.0,96,0.00,CLR,,0.00,WeatherDisplay:10.37,2013-10-03 07:53:00,
2013-10-03 03:58:00,42.7,41.6,29.99,SW,219,0.0,0.0,96,0.00,CLR,,0.00,WeatherDisplay:10.37,2013-10-03 07:58:00,
2013-10-03 04:03:00,42.7,41.6,29.99,SW,219,0.0,0.0,96,0.00,CLR,,0.00,WeatherDisplay:10.37,2013-10-03 08:03:00,
2013-10-03 04:08:00,42.7,41.6,29.99,SW,219,0.0,0.0,96,0.00,CLR,,0.00,WeatherDisplay:10.37,2013-10-03 08:08:00,
2013-10-03 04:13:00,42.8,42.0,30.00,SW,219,0.0,0.0,97,0.00,CLR,,0.00,WeatherDisplay:10.37,2013-10-03 08:13:00,
2013-10-03 04:18:00,42.9,42.1,30.00,SW,219,0.0,0.0,97,0.00,CLR,,0.00,WeatherDisplay:10.37,2013-10-03 08:18:00,
2013-10-03 04:23:00,42.9,42.1,30.00,SW,219,0.0,0.0,97,0.00,CLR,,0.00,WeatherDisplay:10.37,2013-10-03 08:23:00,
2013-10-03 04:28:00,43.0,42.2,30.00,SW,219,0.0,0.0,97,0.00,CLR,,0.00,WeatherDisplay:10.37,2013-10-03 08:28:00,
2013-10-03 04:33:00,43.1,42.3,29.99,SW,219,0.0,0.0,97,0.00,CLR,,0.00,WeatherDisplay:10.37,2013-10-03 08:33:00,
2013-10-03 04:38:00,43.0,42.2,30.00,SW,219,0.0,0.0,97,0.00,CLR,,0.00,WeatherDisplay:10.37,2013-10-03 08:38:00,
2013-10-03 04:43:00,43.0,42.2,30.00,SW,219,0.0,0.0,97,0.00,CLR,,0.00,WeatherDisplay:10.37,2013-10-03 08:43:00,
2013-10-03 04:48:00,43.0,42.2,30.00,SW,218,0.0,0.0,97,0.00,CLR,,0.00,WeatherDisplay:10.37,2013-10-03 08:48:00,
2013-10-03 04:53:00,43.1,42.3,30.00,SW,219,0.0,0.0,97,0.00,CLR,,0.00,WeatherDisplay:10.37,2013-10-03 08:53:00,
2013-10-03 04:58:00,43.2,42.4,30.00,SW,219,0.0,0.0,97,0.00,CLR,,0.00,WeatherDisplay:10.37,2013-10-03 08:58:00,
2013-10-03 05:03:00,43.2,42.4,30.00,SW,218,0.0,0.0,97,0.00,CLR,,0.00,WeatherDisplay:10.37,2013-10-03 09:03:00,
2013-10-03 05:08:00,43.2,42.4,30.00,SW,218,0.0,0.0,97,0.00,CLR,,0.00,WeatherDisplay:10.37,2013-10-03 09:08:00,
2013-10-03 05:13:00,43.3,42.5,30.00,SW,219,0.0,0.0,97,0.00,CLR,,0.00,WeatherDisplay:10.37,2013-10-03 09:13:00,
2013-10-03 05:18:00,43.3,42.5,30.00,SW,219,0.0,0.0,97,0.00,CLR,,0.00,WeatherDisplay:10.37,2013-10-03 09:18:00,
2013-10-03 05:23:00,43.3,42.5,30.00,SW,219,0.0,0.0,97,0.00,CLR,,0.00,WeatherDisplay:10.37,2013-10-03 09:23:00,
2013-10-03 05:28:00,43.5,42.7,30.00,SW,219,0.0,0.0,97,0.00,CLR,,0.00,WeatherDisplay:10.37,2013-10-03 09:28:00,
2013-10-03 05:33:00,43.7,42.9,30.00,SW,219,0.0,0.0,97,0.00,CLR,,0.00,WeatherDisplay:10.37,2013-10-03 09:33:00,
2013-10-03 05:38:00,43.9,43.1,30.00,SW,219,0.0,0.0,97,0.00,CLR,,0.00,WeatherDisplay:10.37,2013-10-03 09:38:00,
2013-10-03 05:43:00,43.8,43.0,30.00,SW,219,0.0,0.0,97,0.00,CLR,,0.00,WeatherDisplay:10.37,2013-10-03 09:43:00,
2013-10-03 05:48:00,43.7,42.9,30.00,SW,218,0.0,0.0,97,0.00,CLR,,0.00,WeatherDisplay:10.37,2013-10-03 09:48:00,
2013-10-03 05:53:00,43.6,42.8,30.00,SW,219,0.0,0.0,97,0.00,CLR,,0.00,WeatherDisplay:10.37,2013-10-03 09:53:00,
2013-10-03 05:58:00,43.6,42.8,30.00,SW,219,0.0,0.0,97,0.00,CLR,,0.00,WeatherDisplay:10.37,2013-10-03 09:58:00,
2013-10-03 06:03:00,43.6,42.8,30.00,SW,219,0.0,0.0,97,0.00,CLR,,0.00,WeatherDisplay:10.37,2013-10-03 10:03:00,
2013-10-03 06:08:00,43.5,42.7,30.00,SW,219,0.0,0.0,97,0.00,CLR,,0.00,WeatherDisplay:10.37,2013-10-03 10:08:00,
2013-10-03 06:13:00,43.5,42.7,30.00,SW,219,0.0,0.0,97,0.00,CLR,,0.00,WeatherDisplay:10.37,2013-10-03 10:13:00,
2013-10-03 06:18:00,43.6,42.8,30.00,SW,219,0.0,0.0,97,0.00,CLR,,0.00,WeatherDisplay:10.37,2013-10-03 10:18:00,
2013-10-03 06:23:00,43.7,42.9,30.00,SW,219,0.0,0.0,97,0.00,CLR,,0.00,WeatherDisplay:10.37,2013-10-03 10:23:00,
2013-10-03 06:28:00,43.8,43.0,30.00,SW,219,0.0,0.0,97,0.00,CLR,,0.00,WeatherDisplay:10.37,2013-10-03 10:28:00,
2013-10-03 06:33:00,44.0,43.2,30.00,SW,219,0.0,0.0,97,0.00,CLR,,0.00,WeatherDisplay:10.37,2013-10-03 10:33:00,
2013-10-03 06:38:00,44.2,43.4,30.00,SW,218,0.0,0.0,97,0.00,CLR,,0.00,WeatherDisplay:10.37,2013-10-03 10:38:00,
2013-10-03 06:43:00,44.5,43.7,29.99,SW,218,0.0,0.0,97,0.00,CLR,,0.00,WeatherDisplay:10.37,2013-10-03 10:43:00,
2013-10-03 06:48:00,44.9,44.1,29.99,SW,219,0.0,0.0,97,0.00,CLR,,0.00,WeatherDisplay:10.37,2013-10-03 10:48:00,
2013-10-03 06:53:00,45.5,45.0,29.99,SW,219,0.0,0.0,98,0.00,CLR,,0.00,WeatherDisplay:10.37,2013-10-03 10:53:00,
2013-10-03 06:58:00,46.2,45.7,29.99,SW,219,0.0,0.0,98,0.00,CLR,,0.00,WeatherDisplay:10.37,2013-10-03 10:58:00,
2013-10-03 07:03:00,46.5,46.0,29.99,SW,218,0.0,0.0,98,0.00,CLR,,0.00,WeatherDisplay:10.37,2013-10-03 11:03:00,
2013-10-03 07:08:00,46.5,46.0,29.99,SW,219,0.0,0.0,98,0.00,CLR,,0.00,WeatherDisplay:10.37,2013-10-03 11:08:00,
2013-10-03 07:13:00,46.9,46.4,29.99,SW,218,0.0,0.0,98,0.00,CLR,,0.00,WeatherDisplay:10.37,2013-10-03 11:13:00,
2013-10-03 07:18:00,47.2,46.7,29.99,SW,218,0.0,0.0,98,0.00,CLR,,0.00,WeatherDisplay:10.37,2013-10-03 11:18:00,
2013-10-03 07:23:00,47.3,46.8,29.99,SW,219,0.0,0.0,98,0.00,CLR,,0.00,WeatherDisplay:10.37,2013-10-03 11:23:00,
2013-10-03 07:28:00,46.9,46.4,29.99,SW,219,0.0,0.0,98,0.00,CLR,,0.00,WeatherDisplay:10.37,2013-10-03 11:28:00,
2013-10-03 07:33:00,46.3,45.5,29.99,SW,219,0.0,0.0,97,0.00,CLR,,0.00,WeatherDisplay:10.37,2013-10-03 11:33:00,
2013-10-03 07:38:00,45.9,45.1,29.99,SW,218,0.0,0.0,97,0.00,CLR,,0.00,WeatherDisplay:10.37,2013-10-03 11:38:00,
2013-10-03 07:43:00,45.8,45.0,30.00,SW,219,0.0,0.0,97,0.00,CLR,,0.00,WeatherDisplay:10.37,2013-10-03 11:43:00,
2013-10-03 07:48:00,46.0,45.2,29.99,SW,219,0.0,0.0,97,0.00,CLR,,0.00,WeatherDisplay:10.37,2013-10-03 11:48:00,
2013-10-03 07:53:00,46.0,45.2,29.99,SW,218,0.0,0.0,97,0.00,CLR,,0.00,WeatherDisplay:10.37,2013-10-03 11:53:00,
2013-10-03 07:58:00,46.1,45.3,29.99,SW,219,0.0,0.0,97,0.00,CLR,,0.00,WeatherDisplay:10.37,2013-10-03 11:58:00,
2013-10-03 08:03:00,46.3,45.5,29.99,SW,219,0.0,0.0,97,0.00,CLR,,0.00,WeatherDisplay:10.37,2013-10-03 12:03:00,
2013-10-03 08:08:00,46.3,45.8,29.99,SW,219,0.0,0.0,98,0.00,CLR,,0.00,WeatherDisplay:10.37,2013-10-03 12:08:00,
2013-10-03 08:13:00,46.4,45.9,29.98,SW,218,0.0,0.0,98,0.00,CLR,,0.00,WeatherDisplay:10.37,2013-10-03 12:13:00,
2013-10-03 08:18:00,46.6,46.1,29.98,SW,218,0.0,0.0,98,0.00,CLR,,0.00,WeatherDisplay:10.37,2013-10-03 12:18:00,
2013-10-03 08:23:00,46.8,46.3,29.98,SW,219,0.0,0.0,98,0.00,CLR,,0.00,WeatherDisplay:10.37,2013-10-03 12:23:00,
2013-10-03 08:28:00,47.1,46.6,29.98,SW,219,1.1,0.0,98,0.00,CLR,,0.00,WeatherDisplay:10.37,2013-10-03 12:28:00,
2013-10-03 08:33:00,47.6,47.1,29.98,SW,219,0.0,0.0,98,0.00,CLR,,0.00,WeatherDisplay:10.37,2013-10-03 12:33:00,
2013-10-03 08:38:00,47.8,47.3,29.98,SW,219,0.0,0.0,98,0.00,CLR,,0.00,WeatherDisplay:10.37,2013-10-03 12:38:00,
2013-10-03 08:43:00,48.2,47.7,29.97,SW,219,0.0,0.0,98,0.00,CLR,,0.00,WeatherDisplay:10.37,2013-10-03 12:43:00,
2013-10-03 08:48:00,48.5,48.0,29.97,SW,219,0.0,0.0,98,0.00,CLR,,0.00,WeatherDisplay:10.37,2013-10-03 12:48:00,
2013-10-03 08:53:00,49.0,48.5,29.97,SW,219,0.0,0.0,98,0.00,CLR,,0.00,WeatherDisplay:10.37,2013-10-03 12:53:00,
2013-10-03 08:58:00,49.6,49.1,29.98,SW,219,0.0,0.0,98,0.00,CLR,,0.00,WeatherDisplay:10.37,2013-10-03 12:58:00,
2013-10-03 09:03:00,50.1,49.6,29.98,SW,219,0.0,0.0,98,0.00,CLR,,0.00,WeatherDisplay:10.37,2013-10-03 13:03:00,
2013-10-03 09:08:00,50.4,49.9,29.98,SW,219,0.0,0.0,98,0.00,CLR,,0.00,WeatherDisplay:10.37,2013-10-03 13:08:00,
2013-10-03 09:13:00,50.8,50.3,29.98,SW,218,0.0,0.0,98,0.00,CLR,,0.00,WeatherDisplay:10.37,2013-10-03 13:13:00,
2013-10-03 09:18:00,51.4,50.9,29.98,SW,219,1.1,0.0,98,0.00,CLR,,0.00,WeatherDisplay:10.37,2013-10-03 13:18:00,
2013-10-03 09:23:00,52.3,51.8,29.98,SW,219,0.0,0.0,98,0.00,CLR,,0.00,WeatherDisplay:10.37,2013-10-03 13:23:00,
2013-10-03 09:28:00,53.1,52.6,29.98,SW,218,0.0,0.0,98,0.00,CLR,,0.00,WeatherDisplay:10.37,2013-10-03 13:28:00,
2013-10-03 09:33:00,53.9,53.3,29.97,South,183,2.3,2.3,98,0.00,CLR,,0.00,WeatherDisplay:10.37,2013-10-03 13:33:00,
2013-10-03 09:38:00,54.8,54.2,29.98,SSE,164,0.0,0.0,98,0.00,CLR,,0.00,WeatherDisplay:10.37,2013-10-03 13:38:00,
2013-10-03 09:43:00,56.0,54.6,29.98,SSE,163,0.0,0.0,95,0.00,CLR,,0.00,WeatherDisplay:10.37,2013-10-03 13:43:00,
2013-10-03 09:48:00,57.1,54.2,29.98,SSE,161,3.5,3.5,90,0.00,CLR,,0.00,WeatherDisplay:10.37,2013-10-03 13:48:00,
2013-10-03 09:53:00,58.1,53.9,29.98,SSE,161,0.0,0.0,86,0.00,CLR,,0.00,WeatherDisplay:10.37,2013-10-03 13:53:00,
2013-10-03 09:58:00,59.0,54.2,29.98,SSE,161,2.0,2.0,84,0.00,CLR,,0.00,WeatherDisplay:10.37,2013-10-03 13:58:00,
2013-10-03 10:03:00,59.7,53.9,29.97,SSE,162,0.0,0.0,81,0.00,CLR,,0.00,WeatherDisplay:10.37,2013-10-03 14:03:00,
2013-10-03 10:08:00,60.4,53.9,29.97,SSE,162,3.5,0.0,79,0.00,CLR,,0.00,WeatherDisplay:10.37,2013-10-03 14:08:00,
2013-10-03 10:13:00,60.9,54.0,29.96,SSE,162,1.1,0.0,78,0.00,CLR,,0.00,WeatherDisplay:10.37,2013-10-03 14:13:00,
2013-10-03 10:18:00,61.4,54.1,29.96,SSE,160,4.6,0.0,77,0.00,CLR,,0.00,WeatherDisplay:10.37,2013-10-03 14:18:00,
2013-10-03 10:23:00,61.9,54.6,29.96,SSE,161,1.1,0.0,77,0.00,CLR,,0.00,WeatherDisplay:10.37,2013-10-03 14:23:00,
2013-10-03 10:28:00,62.4,54.4,29.96,SSE,161,0.0,0.0,75,0.00,CLR,,0.00,WeatherDisplay:10.37,2013-10-03 14:28:00,
2013-10-03 10:33:00,62.8,54.8,29.96,SSE,161,1.1,1.1,75,0.00,CLR,,0.00,WeatherDisplay:10.37,2013-10-03 14:33:00,
2013-10-03 10:38:00,63.3,55.2,29.96,SSE,153,3.0,3.0,75,0.00,CLR,,0.00,WeatherDisplay:10.37,2013-10-03 14:38:00,
2013-10-03 10:43:00,63.8,55.4,29.96,ESE,123,4.6,4.6,74,0.00,CLR,,0.00,WeatherDisplay:10.37,2013-10-03 14:43:00,
2013-10-03 10:48:00,64.1,55.6,29.96,SE,129,0.0,0.1,74,0.00,CLR,,0.00,WeatherDisplay:10.37,2013-10-03 14:48:00,
2013-10-03 10:53:00,64.5,56.0,29.96,SE,128,0.0,0.0,74,0.00,CLR,,0.00,WeatherDisplay:10.37,2013-10-03 14:53:00,
2013-10-03 10:58:00,64.9,56.4,29.96,SE,130,2.3,2.3,74,0.00,CLR,,0.00,WeatherDisplay:10.37,2013-10-03 14:58:00,
2013-10-03 11:03:00,65.5,56.6,29.95,SE,140,0.0,0.0,73,0.00,CLR,,0.00,WeatherDisplay:10.37,2013-10-03 15:03:00,
2013-10-03 11:08:00,66.0,57.1,29.95,SE,127,3.5,0.0,73,0.00,CLR,,0.00,WeatherDisplay:10.37,2013-10-03 15:08:00,
2013-10-03 11:13:00,66.3,57.4,29.95,SE,134,3.5,0.0,73,0.00,CLR,,0.00,WeatherDisplay:10.37,2013-10-03 15:13:00,
2013-10-03 11:18:00,67.0,57.7,29.95,SE,133,0.0,0.0,72,0.00,CLR,,0.00,WeatherDisplay:10.37,2013-10-03 15:18:00,
2013-10-03 11:23:00,67.7,58.0,29.94,SE,133,0.0,0.0,71,0.00,CLR,,0.00,WeatherDisplay:10.37,2013-10-03 15:23:00,
2013-10-03 11:28:00,68.5,58.7,29.94,SE,135,3.5,3.5,71,0.00,CLR,,0.00,WeatherDisplay:10.37,2013-10-03 15:28:00,
2013-10-03 11:33:00,69.0,59.2,29.94,SE,136,0.0,0.0,71,0.00,CLR,,0.00,WeatherDisplay:10.37,2013-10-03 15:33:00,
2013-10-03 11:38:00,69.4,59.2,29.94,SE,135,1.1,0.0,70,0.00,CLR,,0.00,WeatherDisplay:10.37,2013-10-03 15:38:00,
2013-10-03 11:43:00,69.6,59.4,29.93,SE,133,1.1,1.1,70,0.00,CLR,,0.00,WeatherDisplay:10.37,2013-10-03 15:43:00,
2013-10-03 11:48:00,69.7,59.5,29.93,SE,137,2.3,0.0,70,0.00,CLR,,0.00,WeatherDisplay:10.37,2013-10-03 15:48:00,
2013-10-03 11:53:00,70.1,59.9,29.93,ESE,119,3.5,3.5,70,0.00,CLR,,0.00,WeatherDisplay:10.37,2013-10-03 15:53:00,
2013-10-03 11:58:00,70.4,60.1,29.93,SE,142,4.6,4.6,70,0.00,CLR,,0.00,WeatherDisplay:10.37,2013-10-03 15:58:00,
2013-10-03 12:03:00,71.0,60.7,29.92,SE,142,0.0,0.1,70,0.00,CLR,,0.00,WeatherDisplay:10.37,2013-10-03 16:03:00,
2013-10-03 12:08:00,71.6,60.5,29.92,SE,136,3.5,3.5,68,0.00,CLR,,0.00,WeatherDisplay:10.37,2013-10-03 16:08:00,
2013-10-03 12:13:00,71.8,61.1,29.92,SE,134,1.1,0.0,69,0.00,CLR,,0.00,WeatherDisplay:10.37,2013-10-03 16:13:00,
2013-10-03 12:18:00,71.9,60.8,29.92,SE,136,0.0,0.0,68,0.00,CLR,,0.00,WeatherDisplay:10.37,2013-10-03 16:18:00,
2013-10-03 12:23:00,72.1,61.0,29.92,SE,137,4.6,4.6,68,0.00,CLR,,0.00,WeatherDisplay:10.37,2013-10-03 16:23:00,
2013-10-03 12:28:00,72.3,61.1,29.92,ESE,104,4.6,4.6,68,0.00,CLR,,0.00,WeatherDisplay:10.37,2013-10-03 16:28:00,
2013-10-03 12:33:00,72.9,61.7,29.92,ESE,106,3.5,3.5,68,0.00,CLR,,0.00,WeatherDisplay:10.37,2013-10-03 16:33:00,
2013-10-03 12:38:00,73.0,61.8,29.91,SE,130,3.0,3.0,68,0.00,CLR,,0.00,WeatherDisplay:10.37,2013-10-03 16:38:00,
2013-10-03 12:43:00,72.9,62.1,29.91,ESE,107,3.5,3.5,69,0.00,CLR,,0.00,WeatherDisplay:10.37,2013-10-03 16:43:00,
2013-10-03 12:48:00,73.2,62.0,29.91,ESE,109,3.5,0.0,68,0.00,CLR,,0.00,WeatherDisplay:10.37,2013-10-03 16:48:00,
2013-10-03 12:53:00,73.5,62.7,29.91,SSE,152,0.0,1.3,69,0.00,CLR,,0.00,WeatherDisplay:10.37,2013-10-03 16:53:00,
2013-10-03 12:58:00,73.7,62.5,29.91,SSE,149,0.0,0.1,68,0.00,CLR,,0.00,WeatherDisplay:10.37,2013-10-03 16:58:00,
2013-10-03 13:03:00,74.3,63.1,29.91,SSE,149,1.1,1.1,68,0.00,CLR,,0.00,WeatherDisplay:10.37,2013-10-03 17:03:00,
2013-10-03 13:08:00,74.8,63.5,29.91,SSE,149,0.0,0.0,68,0.00,CLR,,0.00,WeatherDisplay:10.37,2013-10-03 17:08:00,
2013-10-03 13:13:00,75.2,63.9,29.91,SSE,149,1.1,1.1,68,0.00,CLR,,0.00,WeatherDisplay:10.37,2013-10-03 17:13:00,
2013-10-03 13:18:00,74.9,63.6,29.90,South,178,3.5,3.5,68,0.00,CLR,,0.00,WeatherDisplay:10.37,2013-10-03 17:18:00,
2013-10-03 13:23:00,74.7,63.9,29.90,SSE,154,4.0,4.0,69,0.00,CLR,,0.00,WeatherDisplay:10.37,2013-10-03 17:23:00,
2013-10-03 13:28:00,74.9,64.0,29.90,SE,126,6.9,6.9,69,0.00,CLR,,0.00,WeatherDisplay:10.37,2013-10-03 17:28:00,
2013-10-03 13:33:00,75.1,63.8,29.90,South,169,3.5,3.5,68,0.00,CLR,,0.00,WeatherDisplay:10.37,2013-10-03 17:33:00,
2013-10-03 13:38:00,75.4,64.1,29.90,SE,139,3.5,3.5,68,0.00,CLR,,0.00,WeatherDisplay:10.37,2013-10-03 17:38:00,
2013-10-03 13:43:00,75.7,64.4,29.89,SE,136,0.0,0.4,68,0.00,CLR,,0.00,WeatherDisplay:10.37,2013-10-03 17:43:00,
2013-10-03 13:48:00,76.0,64.2,29.89,South,184,9.2,9.2,67,0.00,CLR,,0.00,WeatherDisplay:10.37,2013-10-03 17:48:00,
2013-10-03 13:53:00,75.6,64.7,29.89,SSW,197,6.9,6.9,69,0.00,CLR,,0.00,WeatherDisplay:10.37,2013-10-03 17:53:00,
2013-10-03 13:58:00,75.6,65.1,29.89,SSE,147,2.3,2.3,70,0.00,CLR,,0.00,WeatherDisplay:10.37,2013-10-03 17:58:00,
2013-10-03 14:03:00,75.7,65.2,29.89,SE,142,3.5,3.5,70,0.00,CLR,,0.00,WeatherDisplay:10.37,2013-10-03 18:03:00,
2013-10-03 14:08:00,75.9,65.8,29.89,South,179,9.2,9.2,71,0.00,CLR,,0.00,WeatherDisplay:10.37,2013-10-03 18:08:00,
2013-10-03 14:13:00,76.2,65.7,29.88,SE,140,2.0,2.0,70,0.00,CLR,,0.00,WeatherDisplay:10.37,2013-10-03 18:13:00,
2013-10-03 14:18:00,76.3,65.4,29.88,SSW,198,3.5,3.5,69,0.00,CLR,,0.00,WeatherDisplay:10.37,2013-10-03 18:18:00,
2013-10-03 14:23:00,76.1,65.6,29.89,South,188,2.3,2.3,70,0.00,CLR,,0.00,WeatherDisplay:10.37,2013-10-03 18:23:00,
2013-10-03 14:28:00,76.2,65.7,29.88,South,169,4.6,4.6,70,0.00,CLR,,0.00,WeatherDisplay:10.37,2013-10-03 18:28:00,
2013-10-03 14:33:00,77.0,65.6,29.87,South,184,3.5,3.5,68,0.00,CLR,,0.00,WeatherDisplay:10.37,2013-10-03 18:33:00,
2013-10-03 14:38:00,77.2,66.2,29.88,WSW,238,1.1,2.0,69,0.00,CLR,,0.00,WeatherDisplay:10.37,2013-10-03 18:38:00,
2013-10-03 14:43:00,77.1,65.7,29.88,SSE,156,6.0,6.0,68,0.00,CLR,,0.00,WeatherDisplay:10.37,2013-10-03 18:43:00,
2013-10-03 14:48:00,76.8,65.4,29.88,South,169,4.6,4.6,68,0.00,CLR,,0.00,WeatherDisplay:10.37,2013-10-03 18:48:00,
2013-10-03 14:53:00,76.9,65.5,29.87,SSE,157,6.9,6.9,68,0.00,CLR,,0.00,WeatherDisplay:10.37,2013-10-03 18:53:00,
2013-10-03 14:58:00,77.1,65.7,29.87,SSW,206,3.5,3.5,68,0.00,CLR,,0.00,WeatherDisplay:10.37,2013-10-03 18:58:00,
2013-10-03 15:03:00,77.1,66.1,29.87,South,190,4.0,4.0,69,0.00,CLR,,0.00,WeatherDisplay:10.37,2013-10-03 19:03:00,
2013-10-03 15:08:00,77.3,66.3,29.87,SSW,204,0.0,0.0,69,0.00,CLR,,0.00,WeatherDisplay:10.37,2013-10-03 19:08:00,
2013-10-03 15:13:00,77.6,66.2,29.87,SSE,163,1.1,1.1,68,0.00,CLR,,0.00,WeatherDisplay:10.37,2013-10-03 19:13:00,
2013-10-03 15:18:00,77.6,65.8,29.86,South,182,2.3,2.3,67,0.00,CLR,,0.00,WeatherDisplay:10.37,2013-10-03 19:18:00,
2013-10-03 15:23:00,78.2,66.8,29.86,SW,222,3.0,3.0,68,0.00,CLR,,0.00,WeatherDisplay:10.37,2013-10-03 19:23:00,
2013-10-03 15:28:00,78.6,66.7,29.86,SW,215,1.1,1.1,67,0.00,CLR,,0.00,WeatherDisplay:10.37,2013-10-03 19:28:00,
2013-10-03 15:33:00,79.0,66.7,29.86,SSW,206,3.5,3.5,66,0.00,CLR,,0.00,WeatherDisplay:10.37,2013-10-03 19:33:00,
2013-10-03 15:38:00,79.0,66.7,29.86,South,172,3.5,3.5,66,0.00,CLR,,0.00,WeatherDisplay:10.37,2013-10-03 19:38:00,
2013-10-03 15:43:00,78.7,66.4,29.85,South,173,2.3,2.3,66,0.00,CLR,,0.00,WeatherDisplay:10.37,2013-10-03 19:43:00,
2013-10-03 15:48:00,78.7,66.4,29.85,SSW,195,3.5,3.5,66,0.00,CLR,,0.00,WeatherDisplay:10.37,2013-10-03 19:48:00,
2013-10-03 15:53:00,78.9,66.1,29.85,SSW,194,2.3,2.3,65,0.00,CLR,,0.00,WeatherDisplay:10.37,2013-10-03 19:53:00,
2013-10-03 15:58:00,79.0,66.2,29.85,South,175,5.8,5.8,65,0.00,CLR,,0.00,WeatherDisplay:10.37,2013-10-03 19:58:00,
2013-10-03 16:03:00,79.1,66.3,29.84,SW,225,3.5,3.5,65,0.00,CLR,,0.00,WeatherDisplay:10.37,2013-10-03 20:03:00,
2013-10-03 16:08:00,79.8,66.5,29.84,SW,221,2.0,2.0,64,0.00,CLR,,0.00,WeatherDisplay:10.37,2013-10-03 20:08:00,
2013-10-03 16:13:00,79.8,66.5,29.83,SSW,196,3.5,3.5,64,0.00,CLR,,0.00,WeatherDisplay:10.37,2013-10-03 20:13:00,
2013-10-03 16:18:00,79.7,66.4,29.83,SW,218,4.6,4.6,64,0.00,CLR,,0.00,WeatherDisplay:10.37,2013-10-03 20:18:00,
2013-10-03 16:23:00,79.0,65.8,29.83,South,179,1.1,0.0,64,0.00,CLR,,0.00,WeatherDisplay:10.37,2013-10-03 20:23:00,
2013-10-03 16:28:00,79.0,65.8,29.83,SSW,197,3.5,3.5,64,0.00,CLR,,0.00,WeatherDisplay:10.37,2013-10-03 20:28:00,
2013-10-03 16:33:00,78.7,65.9,29.83,SW,223,1.1,0.0,65,0.00,CLR,,0.00,WeatherDisplay:10.37,2013-10-03 20:33:00,
2013-10-03 16:38:00,78.6,66.3,29.83,SW,217,3.0,3.0,66,0.00,CLR,,0.00,WeatherDisplay:10.37,2013-10-03 20:38:00,
2013-10-03 16:43:00,78.2,66.3,29.83,SSW,200,2.3,0.0,67,0.00,CLR,,0.00,WeatherDisplay:10.37,2013-10-03 20:43:00,
2013-10-03 16:48:00,78.1,66.2,29.83,SSW,200,1.1,0.0,67,0.00,CLR,,0.00,WeatherDisplay:10.37,2013-10-03 20:48:00,
2013-10-03 16:53:00,78.0,66.2,29.83,SSW,200,1.1,0.0,67,0.00,CLR,,0.00,WeatherDisplay:10.37,2013-10-03 20:53:00,
2013-10-03 16:58:00,78.0,66.2,29.83,SSW,201,0.0,0.0,67,0.00,CLR,,0.00,WeatherDisplay:10.37,2013-10-03 20:58:00,
2013-10-03 17:03:00,78.0,66.6,29.84,SSW,200,1.1,0.0,68,0.00,CLR,,0.00,WeatherDisplay:10.37,2013-10-03 21:03:00,
2013-10-03 17:08:00,78.0,67.0,29.83,SSW,201,0.0,0.0,69,0.00,CLR,,0.00,WeatherDisplay:10.37,2013-10-03 21:08:00,
2013-10-03 17:13:00,78.0,67.8,29.83,SSW,200,0.0,0.0,71,0.00,CLR,,0.00,WeatherDisplay:10.37,2013-10-03 21:13:00,
2013-10-03 17:18:00,77.8,68.0,29.83,SSW,201,0.0,0.0,72,0.00,CLR,,0.00,WeatherDisplay:10.37,2013-10-03 21:18:00,
2013-10-03 17:24:00,77.5,68.2,29.83,SSW,201,0.0,0.0,73,0.00,CLR,,0.00,WeatherDisplay:10.37,2013-10-03 21:24:00,
2013-10-03 17:29:00,76.7,68.2,29.83,SSW,201,0.0,0.0,75,0.00,CLR,,0.00,WeatherDisplay:10.37,2013-10-03 21:29:00,
2013-10-03 17:34:00,74.9,68.3,29.85,SSW,200,1.1,0.0,80,0.00,CLR,,0.00,WeatherDisplay:10.37,2013-10-03 21:34:00,
2013-10-03 17:39:00,72.4,67.3,29.85,SE,128,6.9,6.9,84,0.18,RA,,0.19,WeatherDisplay:10.37,2013-10-03 21:39:00,
2013-10-03 17:44:00,71.3,67.6,29.85,SE,132,0.0,0.0,88,0.19,RA,,0.19,WeatherDisplay:10.37,2013-10-03 21:44:00,
2013-10-03 17:49:00,70.8,67.7,29.84,SE,132,0.0,0.0,90,0.19,RA,,0.19,WeatherDisplay:10.37,2013-10-03 21:49:00,
2013-10-03 17:54:00,70.4,67.6,29.84,SE,132,0.0,0.0,91,0.19,CLR,,0.19,WeatherDisplay:10.37,2013-10-03 21:54:00,
2013-10-03 17:59:00,70.4,68.3,29.84,SE,132,0.0,0.0,93,0.19,CLR,,0.19,WeatherDisplay:10.37,2013-10-03 21:59:00,
2013-10-03 18:04:00,70.1,68.0,29.84,SE,132,0.0,0.0,93,0.19,CLR,,0.19,WeatherDisplay:10.37,2013-10-03 22:04:00,
2013-10-03 18:09:00,69.9,67.8,29.84,SE,132,0.0,0.0,93,0.19,CLR,,0.19,WeatherDisplay:10.37,2013-10-03 22:09:00,
2013-10-03 18:14:00,69.6,67.5,29.85,SE,132,0.0,0.0,93,0.19,CLR,,0.19,WeatherDisplay:10.37,2013-10-03 22:14:00,
2013-10-03 18:19:00,69.3,67.5,29.85,SE,132,0.0,0.0,94,0.19,CLR,,0.19,WeatherDisplay:10.37,2013-10-03 22:19:00,
2013-10-03 18:24:00,69.0,67.2,29.85,SE,132,0.0,0.0,94,0.19,CLR,,0.19,WeatherDisplay:10.37,2013-10-03 22:24:00,
2013-10-03 18:29:00,68.9,67.1,29.85,SE,132,0.0,0.0,94,0.19,CLR,,0.19,WeatherDisplay:10.37,2013-10-03 22:29:00,
2013-10-03 18:34:00,68.8,67.3,29.85,SE,132,0.0,0.0,95,0.19,CLR,,0.19,WeatherDisplay:10.37,2013-10-03 22:34:00,
2013-10-03 18:39:00,68.8,67.3,29.85,SE,132,0.0,0.0,95,0.01,CLR,,0.19,WeatherDisplay:10.37,2013-10-03 22:39:00,
2013-10-03 18:44:00,68.7,67.2,29.85,SE,132,0.0,0.0,95,0.00,CLR,,0.19,WeatherDisplay:10.37,2013-10-03 22:44:00,
2013-10-03 18:49:00,68.7,67.5,29.85,SE,132,0.0,0.0,96,0.00,CLR,,0.19,WeatherDisplay:10.37,2013-10-03 22:49:00,
2013-10-03 18:54:00,68.6,67.4,29.85,SE,132,0.0,0.0,96,0.00,CLR,,0.19,WeatherDisplay:10.37,2013-10-03 22:54:00,
2013-10-03 18:59:00,68.6,67.4,29.85,SE,132,0.0,0.0,96,0.00,CLR,,0.19,WeatherDisplay:10.37,2013-10-03 22:59:00,
2013-10-03 19:04:00,68.5,67.3,29.85,SE,132,0.0,0.0,96,0.00,CLR,,0.19,WeatherDisplay:10.37,2013-10-03 23:04:00,
2013-10-03 19:09:00,68.4,67.2,29.86,SE,132,0.0,0.0,96,0.00,CLR,,0.19,WeatherDisplay:10.37,2013-10-03 23:09:00,
2013-10-03 19:14:00,68.3,67.1,29.86,SE,132,0.0,0.0,96,0.00,CLR,,0.19,WeatherDisplay:10.37,2013-10-03 23:14:00,
2013-10-03 19:19:00,68.2,67.0,29.86,SE,132,0.0,0.0,96,0.00,CLR,,0.19,WeatherDisplay:10.37,2013-10-03 23:19:00,
2013-10-03 19:24:00,68.2,67.0,29.86,SE,132,0.0,0.0,96,0.00,CLR,,0.19,WeatherDisplay:10.37,2013-10-03 23:24:00,
2013-10-03 19:29:00,68.1,66.9,29.86,SE,132,0.0,0.0,96,0.00,CLR,,0.19,WeatherDisplay:10.37,2013-10-03 23:29:00,
2013-10-03 19:34:00,68.1,66.9,29.87,SE,132,0.0,0.0,96,0.00,CLR,,0.19,WeatherDisplay:10.37,2013-10-03 23:34:00,
2013-10-03 19:39:00,68.0,67.1,29.86,SE,132,0.0,0.0,97,0.00,CLR,,0.19,WeatherDisplay:10.37,2013-10-03 23:39:00,
2013-10-03 19:44:00,67.9,67.0,29.86,SE,132,0.0,0.0,97,0.00,CLR,,0.19,WeatherDisplay:10.37,2013-10-03 23:44:00,
2013-10-03 19:49:00,67.8,66.9,29.86,SE,132,0.0,0.0,97,0.00,CLR,,0.19,WeatherDisplay:10.37,2013-10-03 23:49:00,
2013-10-03 19:54:00,67.7,66.8,29.86,SE,132,0.0,0.0,97,0.00,CLR,,0.19,WeatherDisplay:10.37,2013-10-03 23:54:00,
2013-10-03 19:59:00,67.6,66.7,29.87,SE,132,0.0,0.0,97,0.00,CLR,,0.19,WeatherDisplay:10.37,2013-10-03 23:59:00,
2013-10-03 20:04:00,67.6,66.7,29.87,SE,132,0.0,0.0,97,0.00,CLR,,0.19,WeatherDisplay:10.37,2013-10-04 00:04:00,
2013-10-03 20:09:00,67.5,66.6,29.87,SE,132,0.0,0.0,97,0.00,CLR,,0.19,WeatherDisplay:10.37,2013-10-04 00:09:00,
2013-10-03 20:14:00,67.4,66.5,29.87,SE,132,0.0,0.0,97,0.00,CLR,,0.19,WeatherDisplay:10.37,2013-10-04 00:14:00,
2013-10-03 20:19:00,67.4,66.5,29.87,SE,132,0.0,0.0,97,0.00,CLR,,0.19,WeatherDisplay:10.37,2013-10-04 00:19:00,
2013-10-03 20:24:00,67.3,66.4,29.87,SE,132,0.0,0.0,97,0.00,CLR,,0.19,WeatherDisplay:10.37,2013-10-04 00:24:00,
2013-10-03 20:29:00,67.3,66.4,29.88,SE,132,0.0,0.0,97,0.00,CLR,,0.19,WeatherDisplay:10.37,2013-10-04 00:29:00,
2013-10-03 20:34:00,67.2,66.3,29.88,SE,132,0.0,0.0,97,0.00,CLR,,0.19,WeatherDisplay:10.37,2013-10-04 00:34:00,
2013-10-03 20:39:00,67.2,66.3,29.88,SE,132,0.0,0.0,97,0.00,CLR,,0.19,WeatherDisplay:10.37,2013-10-04 00:39:00,
2013-10-03 20:44:00,67.1,66.2,29.88,SE,132,0.0,0.0,97,0.00,CLR,,0.19,WeatherDisplay:10.37,2013-10-04 00:44:00,
2013-10-03 20:49:00,67.1,66.2,29.88,SE,132,0.0,0.0,97,0.01,RA,,0.21,WeatherDisplay:10.37,2013-10-04 00:49:00,
2013-10-03 20:54:00,67.1,66.2,29.88,SE,132,0.0,0.0,97,0.02,RA,,0.21,WeatherDisplay:10.37,2013-10-04 00:54:00,
2013-10-03 20:59:00,67.0,66.1,29.88,SE,132,0.0,0.0,97,0.02,RA,,0.21,WeatherDisplay:10.37,2013-10-04 00:59:00,
2013-10-03 21:04:00,66.9,66.0,29.88,SE,132,0.0,0.0,97,0.02,CLR,,0.21,WeatherDisplay:10.37,2013-10-04 01:04:00,
2013-10-03 21:09:00,66.8,65.9,29.87,SE,132,0.0,0.0,97,0.02,CLR,,0.21,WeatherDisplay:10.37,2013-10-04 01:09:00,
2013-10-03 21:14:00,66.8,66.2,29.87,SE,132,0.0,0.0,98,0.02,CLR,,0.21,WeatherDisplay:10.37,2013-10-04 01:14:00,
2013-10-03 21:19:00,66.6,66.0,29.88,SE,132,0.0,0.0,98,0.02,CLR,,0.21,WeatherDisplay:10.37,2013-10-04 01:19:00,
2013-10-03 21:24:00,66.5,65.9,29.88,SE,132,0.0,0.0,98,0.02,CLR,,0.21,WeatherDisplay:10.37,2013-10-04 01:24:00,
2013-10-03 21:29:00,66.5,65.9,29.88,SE,132,0.0,0.0,98,0.02,CLR,,0.21,WeatherDisplay:10.37,2013-10-04 01:29:00,
2013-10-03 21:34:00,66.5,65.9,29.88,SE,132,0.0,0.0,98,0.02,CLR,,0.21,WeatherDisplay:10.37,2013-10-04 01:34:00,
2013-10-03 21:39:00,66.4,65.8,29.88,SE,132,0.0,0.0,98,0.02,CLR,,0.21,WeatherDisplay:10.37,2013-10-04 01:39:00,
2013-10-03 21:44:00,66.4,65.8,29.87,SE,132,0.0,0.0,98,0.02,CLR,,0.21,WeatherDisplay:10.37,2013-10-04 01:44:00,
2013-10-03 21:49:00,66.4,65.8,29.88,SE,132,0.0,0.0,98,0.01,CLR,,0.21,WeatherDisplay:10.37,2013-10-04 01:49:00,
2013-10-03 21:54:00,66.4,65.8,29.88,SE,132,0.0,0.0,98,0.00,CLR,,0.21,WeatherDisplay:10.37,2013-10-04 01:54:00,
2013-10-03 21:59:00,66.3,65.7,29.88,SE,132,0.0,0.0,98,0.00,CLR,,0.21,WeatherDisplay:10.37,2013-10-04 01:59:00,
2013-10-03 22:04:00,66.2,65.6,29.88,SE,132,0.0,0.0,98,0.00,CLR,,0.21,WeatherDisplay:10.37,2013-10-04 02:04:00,
2013-10-03 22:09:00,66.1,65.5,29.88,SE,132,0.0,0.0,98,0.00,CLR,,0.21,WeatherDisplay:10.37,2013-10-04 02:09:00,
2013-10-03 22:14:00,66.1,65.5,29.88,SE,132,0.0,0.0,98,0.00,CLR,,0.21,WeatherDisplay:10.37,2013-10-04 02:14:00,
2013-10-03 22:19:00,66.0,65.4,29.88,SE,132,0.0,0.0,98,0.00,CLR,,0.21,WeatherDisplay:10.37,2013-10-04 02:19:00,
2013-10-03 22:24:00,65.8,65.2,29.88,SE,132,0.0,0.0,98,0.00,CLR,,0.21,WeatherDisplay:10.37,2013-10-04 02:24:00,
2013-10-03 22:29:00,65.7,65.1,29.89,SE,132,0.0,0.0,98,0.00,CLR,,0.21,WeatherDisplay:10.37,2013-10-04 02:29:00,
2013-10-03 22:34:00,65.7,65.1,29.89,SE,132,0.0,0.0,98,0.00,CLR,,0.21,WeatherDisplay:10.37,2013-10-04 02:34:00,
2013-10-03 22:39:00,65.6,65.0,29.89,SE,132,0.0,0.0,98,0.00,CLR,,0.21,WeatherDisplay:10.37,2013-10-04 02:39:00,
2013-10-03 22:44:00,65.6,65.0,29.89,SE,132,0.0,0.0,98,0.00,CLR,,0.21,WeatherDisplay:10.37,2013-10-04 02:44:00,
2013-10-03 22:49:00,65.6,65.0,29.89,SE,132,0.0,0.0,98,0.00,CLR,,0.21,WeatherDisplay:10.37,2013-10-04 02:49:00,
2013-10-03 22:54:00,65.5,64.9,29.89,SE,132,0.0,0.0,98,0.00,CLR,,0.21,WeatherDisplay:10.37,2013-10-04 02:54:00,
2013-10-03 22:59:00,65.5,64.9,29.89,SE,132,0.0,0.0,98,0.00,CLR,,0.21,WeatherDisplay:10.37,2013-10-04 02:59:00,
2013-10-03 23:04:00,65.4,64.8,29.89,SE,132,0.0,0.0,98,0.00,CLR,,0.21,WeatherDisplay:10.37,2013-10-04 03:04:00,
2013-10-03 23:09:00,65.3,64.7,29.89,SE,132,0.0,0.0,98,0.00,CLR,,0.21,WeatherDisplay:10.37,2013-10-04 03:09:00,
2013-10-03 23:14:00,65.3,64.7,29.89,SE,132,0.0,0.0,98,0.00,CLR,,0.21,WeatherDisplay:10.37,2013-10-04 03:14:00,
2013-10-03 23:19:00,65.2,64.6,29.89,SE,132,0.0,0.0,98,0.00,CLR,,0.21,WeatherDisplay:10.37,2013-10-04 03:19:00,
2013-10-03 23:24:00,65.2,64.6,29.89,SE,132,0.0,0.0,98,0.00,CLR,,0.21,WeatherDisplay:10.37,2013-10-04 03:24:00,
2013-10-03 23:29:00,65.2,64.6,29.89,SE,132,0.0,0.0,98,0.00,CLR,,0.21,WeatherDisplay:10.37,2013-10-04 03:29:00,
2013-10-03 23:34:00,65.2,64.6,29.89,SE,132,0.0,0.0,98,0.00,CLR,,0.21,WeatherDisplay:10.37,2013-10-04 03:34:00,
2013-10-03 23:39:00,65.2,64.6,29.89,SE,132,0.0,0.0,98,0.00,CLR,,0.21,WeatherDisplay:10.37,2013-10-04 03:39:00,
2013-10-03 23:44:00,65.2,64.6,29.88,SE,132,0.0,0.0,98,0.00,CLR,,0.21,WeatherDisplay:10.37,2013-10-04 03:44:00,
2013-10-03 23:49:00,65.2,64.6,29.88,SE,132,0.0,0.0,98,0.00,CLR,,0.21,WeatherDisplay:10.37,2013-10-04 03:49:00,
2013-10-03 23:54:00,65.2,64.6,29.88,SE,132,0.0,0.0,98,0.00,CLR,,0.21,WeatherDisplay:10.37,2013-10-04 03:54:00,
2013-10-03 23:59:00,65.0,64.4,29.88,SE,132,0.0,0.0,98,0.00,CLR,,0.21,WeatherDisplay:10.37,2013-10-04 03:59:00,